Location: Baia Mare
(47.6567°N, 23.5850°E)
Time: 14:40:54
(UTC+03:00)

ISS - Pass Details

Date: 02 July 2019
Orbit: 409 x 418 km, 51.6° (Epoch: 21 July)

Event Time Altitude Azimuth Distance (km) Brightness Sun altitude
Exits shadow 04:23:11 10° 190° (S) 1,466 -1.5 -9.2°
Maximum altitude 04:25:43 21° 139° (SE) 990 -2.0 -9.0°
Drops below altitude 10° 04:28:16 10° 89° (E) 1,475 -0.3 -8.7°
Sets 04:30:40 0° 72° (ENE) 2,340 1.2 -8.4°
